sat.trackr.live / text

‹ back to catalog

STARLINK-31136

NORAD 58772 · 2024-011H

PAYLOAD ACTIVE UNKNOWN

§ Identity

Operator
Country
US
Launch date
2024-01-14
Launch site
AFWTR
Launch vehicle
Mass (kg)
RCS (m²)

Purposes: comms

External: N2YO · Heavens-Above · Gunter

§ Orbital elements

Epoch: 2026-09-20T12:29:41.236224Z

Period
93.85 min
Inclination
53.1598°
Eccentricity
0.0001012
Mean motion
15.34393432 rev/d
Perigee alt
462.0 km
Apogee alt
463.4 km
Semi-major
6,840.9 km
B*
1.8762e-5
RAAN
185.5955°
Arg perigee
81.5916°
Mean anomaly
278.5202°
Rev number
15,013

§ Raw data

STARLINK-311361 58772U 24011H   26263.52061616  .00000258  00000+0  18762-4 0  99952 58772  53.1598 185.5955 0001012  81.5916 278.5202 15.34393432150137

JSON: /api/v1/satellites/58772 · /tle

For live sub-satellite position, see the globe view (requires WebGL).

§ Visibility from observer

Set your observer location to see the next 7 days of passes ≥ 10°. The values pass through the URL so the page stays shareable.

No JS? Fill the form by hand. The geolocation button needs JavaScript.